This is the latest recevied weather packets stored in our database for station/object AI5KP-13. If no packets are shown the sender has not sent any weather packets the latest 10 day(s).
| Time | Temp. | Humidity | Pressure | Rain* | Wind** | Luminosity | Snow |
|---|---|---|---|---|---|---|---|
| 1777931606 | 25° C | 53% | 1005.5 hPa | 0 mm | - | 301 W/m² | - |
| 1777931302 | 25° C | 52% | 1005.3 hPa | 0 mm | - | 306 W/m² | - |
| 1777931000 | 25° C | 53% | 1005.2 hPa | 0 mm | - | 359 W/m² | - |
| 1777930696 | 25.56° C | 52% | 1005.4 hPa | 0 mm | - | 382 W/m² | - |
| 1777930392 | 25.56° C | 51% | 1005.5 hPa | 0 mm | - | 401 W/m² | - |
| 1777930090 | 25° C | 52% | 1005.5 hPa | 0 mm | - | 380 W/m² | - |
| 1777929786 | 25.56° C | 51% | 1005.8 hPa | 0 mm | - | 373 W/m² | - |
| 1777929484 | 25° C | 53% | 1006 hPa | 0 mm | - | 430 W/m² | - |
| 1777929179 | 25.56° C | 53% | 1005.9 hPa | 0 mm | - | 393 W/m² | - |
| 1777928877 | 25.56° C | 50% | 1006.1 hPa | 0 mm | - | 453 W/m² | - |
| 1777928574 | 25.56° C | 51% | 1006.3 hPa | 0 mm | - | 448 W/m² | - |
| 1777928271 | 25° C | 51% | 1006.2 hPa | 0 mm | - | 431 W/m² | - |
| 1777927969 | 25.56° C | 51% | 1006.3 hPa | 0 mm | - | 434 W/m² | - |
| 1777927667 | 25.56° C | 52% | 1006.5 hPa | 0 mm | - | 503 W/m² | - |
| 1777927365 | 25.56° C | 51% | 1006.2 hPa | 0 mm | - | 461 W/m² | - |
| 1777927064 | 25° C | 53% | 1006.7 hPa | 0 mm | - | 483 W/m² | - |
| 1777926761 | 25° C | 50% | 1006.7 hPa | 0 mm | - | 510 W/m² | - |
| 1777926461 | 25° C | 50% | 1006.8 hPa | 0 mm | - | 505 W/m² | - |
| 1777926158 | 25° C | 51% | 1007 hPa | 0 mm | - | 478 W/m² | - |
| 1777925855 | 25° C | 49% | 1007.2 hPa | 0 mm | - | 506 W/m² | - |
| 1777925552 | 25° C | 52% | 1007.1 hPa | 0 mm | - | 515 W/m² | - |
| 1777925250 | 25° C | 50% | 1007.3 hPa | 0 mm | - | 532 W/m² | - |
| 1777924946 | 25° C | 53% | 1007.2 hPa | 0 mm | - | 524 W/m² | - |
| 1777924642 | 25° C | 51% | 1007.4 hPa | 0 mm | - | 577 W/m² | - |
| 1777924338 | 25° C | 50% | 1007.5 hPa | 0 mm | - | 585 W/m² | - |
* Rain latest hour (hover to see other rain measurements)
** Current wind speed in m/s (hover to see current wind gust speed)